GFSSE_sfc_thetae_057.txt.gz
Theta_e
340 349 353 355 353 352 352 352 353 353 353 352 351 350 348 346 345 344 344 342 341 341 342 343 343 344 345 345 345 344 344 345 346 345 345 344 345 345 346 347 347 347 350
344 351 351 354 355 354 354 354 353 353 353 352 351 349 347 346 344 344 343 341 340 340 340 339 339 341 342 343 344 343 343 344 344 344 341 342 343 342 342 343 345 345 348
347 349 351 352 354 354 353 353 353 352 352 351 350 349 346 346 344 343 342 340 339 339 338 335 335 337 340 341 342 343 343 344 343 342 339 334 336 340 340 338 341 342 345
348 350 351 348 352 353 352 352 352 352 351 350 349 348 346 345 344 343 341 339 337 337 336 334 332 333 336 339 340 341 342 340 340 339 336 335 335 339 339 337 338 339 339
345 349 349 347 351 351 351 350 351 351 350 349 348 347 347 345 342 341 339 337 335 335 334 331 330 330 334 335 336 337 337 335 336 335 332 333 333 335 337 336 335 336 336
342 348 345 348 350 351 350 350 349 349 349 348 348 347 347 344 342 340 338 336 334 334 332 328 326 327 328 331 332 333 331 330 330 325 325 328 328 336 336 335 334 334 336
343 347 347 347 347 348 349 348 348 348 348 348 347 347 346 343 340 339 337 336 335 333 331 327 324 323 324 324 325 326 325 327 319 320 320 321 325 332 332 332 332 332 332
341 345 346 339 342 345 346 347 347 347 347 347 346 345 345 343 341 338 337 337 335 334 332 328 322 320 319 319 319 320 322 322 314 315 316 317 329 329 329 328 329 330 331
321 331 340 343 339 337 341 342 343 344 345 345 345 345 343 342 340 340 338 336 335 333 332 329 322 317 315 315 316 319 320 318 307 309 313 315 328 328 328 327 327 328 330
310 313 315 330 341 342 340 335 337 339 340 341 340 338 335 335 335 335 333 336 335 333 331 328 322 318 315 315 317 318 315 312 303 304 307 313 322 325 328 326 326 328 329
308 308 309 311 325 336 341 337 336 335 335 335 334 331 328 332 332 332 330 334 336 334 331 328 325 320 314 314 318 315 309 299 300 301 305 318 320 323 324 327 327 325 327
302 306 309 309 310 322 334 340 341 338 338 336 335 332 333 332 330 330 326 328 330 330 330 328 326 322 314 306 303 306 299 299 299 300 304 314 316 319 323 324 326 328 326
303 307 310 311 311 310 330 334 338 337 336 333 333 334 333 330 328 327 326 325 323 321 322 321 319 315 310 307 305 302 301 299 298 299 306 312 313 316 318 320 323 327 329
304 307 309 311 313 310 314 333 331 330 329 329 330 332 332 331 329 327 326 326 321 320 318 316 315 316 312 310 308 306 304 302 300 299 301 310 312 314 316 317 320 322 328
305 306 308 311 313 314 313 330 328 326 325 326 326 329 330 330 329 328 326 324 321 320 319 316 312 312 313 313 310 309 307 306 304 302 300 307 311 312 314 317 319 320 321
304 304 308 315 315 319 324 323 320 320 320 321 322 324 323 324 322 320 319 317 317 316 315 312 309 311 310 310 313 310 309 308 307 305 302 302 313 312 314 315 316 317 317
302 304 311 311 315 315 316 316 316 316 316 315 315 316 318 318 316 315 313 312 312 313 311 310 311 310 309 309 307 308 307 307 306 307 305 303 302 308 311 312 313 314 316
302 305 309 310 308 310 311 311 311 311 312 312 311 312 312 313 313 311 309 307 308 307 307 305 306 304 301 300 299 300 302 305 305 304 300 299 299 300 303 309 310 311 313
301 305 305 306 305 305 305 306 306 305 304 305 305 304 306 307 307 305 304 303 302 300 300 302 300 298 296 295 297 299 300 301 302 300 298 299 300 300 299 304 305 305 305
301 304 305 304 304 304 303 301 300 298 298 298 297 297 299 300 300 300 297 296 296 294 294 296 296 295 293 293 298 298 299 296 297 297 297 297 296 297 293 297 298 295 302
300 303 304 303 303 303 301 298 296 293 293 292 292 292 293 294 294 293 292 291 290 289 288 290 294 290 289 290 293 295 296 294 297 294 293 290 290 293 289 293 293 290 292
299 303 304 305 304 304 301 297 294 291 290 289 290 290 290 290 291 290 289 289 288 288 287 286 287 287 286 287 289 291 289 293 291 293 289 288 285 288 287 290 288 288 289
300 303 304 305 300 297 295 293 291 290 288 287 287 287 288 289 289 289 288 287 287 287 285 285 285 285 283 285 285 288 283 282 286 291 287 284 285 284 285 287 286 287 289
299 300 300 299 296 295 295 292 290 288 285 284 285 286 287 287 287 287 287 286 286 286 284 284 285 283 283 281 283 285 283 283 279 280 282 283 283 283 283 284 284 286 288
296 296 296 297 296 295 294 290 288 286 286 286 285 285 285 285 285 285 285 284 284 284 283 283 282 282 282 281 281 281 281 281 280 277 276 277 281 282 282 282 283 284 286
292 292 292 292 289 289 289 288 287 286 285 285 284 283 283 283 283 283 283 283 283 283 282 282 281 281 281 281 280 281 280 279 277 276 275 276 276 278 282 282 282 283 284

GFSSE_sfc_thetae_060.txt.gz
Theta_e
338 347 352 354 353 354 354 352 352 353 351 351 349 347 346 344 343 342 341 341 340 340 341 343 344 345 343 344 344 345 345 345 343 343 343 343 343 344 345 345 346 345 349
344 346 350 353 353 352 352 353 353 352 352 350 348 347 344 344 343 342 340 339 339 339 338 339 341 342 342 343 344 345 344 342 343 341 341 340 342 340 340 341 342 343 347
346 348 350 352 354 353 353 353 353 352 351 350 348 346 345 343 341 341 339 337 338 337 336 335 337 340 340 341 342 342 341 342 342 340 339 332 333 338 338 337 338 340 344
347 349 349 348 352 353 353 352 351 351 350 349 348 346 345 343 341 340 337 336 336 335 334 333 334 337 337 338 340 338 339 339 338 336 333 332 330 337 337 336 337 337 338
346 347 346 347 351 351 351 351 351 351 350 349 348 346 345 342 341 339 336 335 335 333 331 330 330 331 333 335 335 333 336 335 331 328 327 329 327 333 335 335 334 335 334
345 347 345 347 350 350 350 350 350 350 349 348 348 347 344 342 340 338 336 334 333 330 328 326 326 326 327 329 329 331 331 330 325 320 321 325 325 333 333 333 333 333 334
341 345 345 345 347 349 349 349 348 348 348 349 347 346 343 341 339 338 337 336 334 331 327 323 322 322 322 324 324 325 325 324 315 315 316 319 323 330 330 330 331 332 331
344 344 345 340 342 344 346 347 347 347 348 347 347 346 343 341 339 338 337 335 334 333 329 321 319 318 319 320 320 321 322 317 312 311 313 315 330 330 330 329 329 330 330
325 330 339 342 340 338 340 341 343 344 344 345 344 344 342 340 340 338 337 334 333 332 329 322 319 317 317 318 317 318 317 314 302 306 311 313 327 329 329 328 328 330 329
310 312 317 335 339 339 339 336 337 339 340 341 340 338 335 335 336 336 333 335 334 332 328 324 320 317 316 316 316 315 312 310 300 303 307 314 324 326 327 329 327 328 329
307 308 309 314 328 338 341 337 334 334 335 335 334 330 329 333 333 332 330 334 334 332 329 327 323 318 314 315 315 311 306 298 299 300 304 319 321 323 325 327 329 328 328
303 307 309 309 311 324 335 341 341 338 339 338 336 332 332 332 330 330 326 328 329 328 330 327 323 318 311 304 302 305 298 298 298 300 304 317 317 320 321 323 325 328 329
302 307 310 311 311 310 328 335 338 336 335 335 333 332 332 329 328 326 325 322 321 319 318 318 315 311 308 306 304 302 301 299 297 299 304 315 317 320 320 321 322 323 326
304 304 308 310 311 311 316 332 333 331 330 330 332 334 330 328 326 326 325 320 319 317 314 313 314 313 311 308 307 306 304 302 300 300 302 313 316 319 322 322 321 321 321
304 303 306 309 311 313 313 329 328 327 326 326 329 331 331 328 327 326 323 321 319 316 314 311 310 310 310 311 309 308 307 306 304 302 301 312 315 316 318 319 320 321 321
303 303 307 312 313 317 326 323 322 322 322 321 323 323 325 325 322 319 317 316 313 313 311 310 308 308 307 309 308 307 307 306 305 302 301 303 311 312 314 317 318 319 320
302 304 308 314 315 317 318 317 317 317 317 316 316 317 318 318 317 315 313 311 312 310 308 307 308 306 304 303 301 303 305 304 301 299 300 300 300 306 309 312 308 311 313
301 304 307 311 311 312 313 313 312 313 313 312 313 313 313 313 312 310 308 307 308 307 305 303 302 300 297 297 298 299 301 300 298 298 298 298 296 295 301 305 302 307 309
301 303 303 307 307 309 308 306 305 305 305 306 306 308 308 307 306 304 301 300 299 299 299 298 294 293 292 294 297 298 298 297 296 295 292 294 292 290 293 297 297 300 303
301 302 302 304 305 305 303 301 299 298 297 299 299 299 300 300 299 296 294 292 293 294 294 293 290 289 289 292 297 295 294 293 293 290 287 289 289 287 290 289 288 289 298
299 300 301 303 303 303 301 299 297 294 294 294 294 292 293 293 293 291 290 289 289 289 288 289 289 286 286 287 294 294 293 292 289 288 286 285 286 286 287 287 286 287 289
299 300 301 303 303 303 301 296 294 292 291 291 291 290 290 290 289 289 288 287 286 286 285 284 285 284 284 284 289 289 288 291 289 287 284 284 282 284 285 286 285 286 287
297 300 302 303 303 297 293 292 290 290 290 289 288 287 287 288 288 287 286 286 285 285 283 282 283 283 281 283 283 286 280 279 283 288 283 282 282 282 282 283 284 286 286
298 304 305 303 297 295 294 292 291 290 288 287 284 285 286 286 286 286 285 285 284 284 283 283 283 282 282 280 281 284 282 281 278 277 280 281 281 281 281 281 282 284 285
299 299 300 297 296 294 294 293 291 288 286 285 284 284 283 284 284 284 284 284 283 283 282 282 281 281 281 280 280 280 280 280 279 277 276 277 279 280 280 281 281 281 284
295 295 297 295 294 294 292 290 289 286 284 284 283 282 282 282 283 283 284 283 283 282 281 281 281 281 281 280 280 280 280 278 277 276 275 275 275 278 279 280 280 280 281

GFSSE_sfc_thetae_063.txt.gz
Theta_e
336 344 350 353 354 353 351 351 352 351 351 347 346 344 343 342 341 341 340 340 340 340 342 344 344 342 343 344 345 344 343 341 341 341 341 341 341 342 343 342 344 343 347
342 346 348 353 353 352 351 352 352 352 351 348 345 344 342 342 340 339 339 339 338 338 340 341 341 342 342 342 342 343 343 341 340 339 338 338 339 338 339 338 341 341 345
343 347 347 349 352 352 352 352 351 351 350 347 346 345 342 341 340 338 338 337 336 336 335 338 340 340 341 340 341 343 342 340 339 337 335 328 330 337 337 337 337 338 341
345 347 347 348 352 352 352 351 350 351 350 347 345 344 343 341 339 337 337 336 334 333 334 335 336 337 339 336 339 340 338 336 334 333 328 327 329 335 336 335 336 336 337
344 346 346 347 351 352 351 351 351 349 349 348 346 344 342 340 338 336 335 333 331 330 329 330 331 333 334 334 336 336 334 331 329 325 323 325 325 332 334 334 333 333 333
343 345 343 347 351 351 350 350 350 350 349 348 346 344 342 340 338 336 335 332 329 326 326 326 326 329 330 330 331 332 329 326 322 317 318 323 322 331 332 332 332 331 331
341 343 343 345 347 347 348 348 349 349 348 348 346 343 341 339 338 337 336 334 332 325 323 323 323 325 325 326 328 327 324 321 313 314 315 318 323 330 331 331 332 331 330
340 342 343 338 341 344 347 347 347 347 347 347 346 342 341 339 338 337 335 334 333 326 321 320 320 322 322 322 323 321 317 314 309 309 311 314 331 330 330 330 331 331 330
334 338 339 340 338 337 340 341 343 345 344 345 344 343 341 340 339 336 335 334 332 328 324 320 319 319 319 319 319 318 314 311 302 307 312 314 329 329 331 329 330 330 330
314 317 325 337 337 338 339 334 336 339 340 341 340 337 335 335 336 335 332 334 332 329 326 321 320 318 318 317 316 313 310 308 299 303 306 315 326 327 328 330 329 329 329
309 310 311 323 337 339 340 335 332 333 335 335 334 331 329 334 333 332 329 333 332 330 328 324 320 317 313 314 313 309 305 297 299 301 306 321 322 324 325 326 327 330 331
304 310 309 312 317 325 339 339 339 337 338 337 336 332 332 332 331 330 325 327 328 328 328 324 320 315 308 302 301 304 298 297 298 299 307 322 323 324 325 324 324 325 326
303 307 309 311 313 314 328 336 339 337 337 336 334 332 331 329 328 324 325 322 318 317 316 315 311 309 306 305 304 302 301 300 299 301 313 320 323 325 324 324 324 323 323
304 305 308 309 311 311 313 332 333 332 332 334 333 331 329 327 326 324 323 321 317 315 312 312 311 311 309 308 307 306 304 302 301 304 310 316 319 321 323 323 324 324 323
303 303 306 307 310 312 311 330 329 328 328 330 332 331 329 326 325 325 322 320 315 313 311 309 308 308 309 308 308 307 305 303 300 301 306 312 315 317 316 317 319 321 321
303 303 306 310 311 312 320 325 324 323 323 324 325 328 328 327 324 320 317 315 313 313 309 308 306 305 306 305 305 305 303 300 299 298 298 299 309 310 309 312 315 316 318
302 303 307 310 315 317 320 319 318 318 318 317 317 319 320 320 318 315 313 312 310 311 308 307 305 303 303 304 302 302 299 298 297 296 294 293 294 301 303 308 309 311 314
300 303 306 313 313 315 315 314 314 314 314 313 313 314 314 314 313 311 310 308 308 306 303 299 297 297 298 300 298 297 296 295 293 292 290 290 290 291 294 301 303 305 309
300 303 303 309 310 311 309 307 306 307 308 308 310 309 309 309 308 307 305 303 303 300 295 293 291 293 295 296 296 294 293 290 287 288 288 287 287 287 287 293 295 299 303
299 302 302 307 307 305 304 301 301 300 300 302 303 304 304 302 301 299 297 297 296 293 290 289 289 289 290 293 294 291 289 289 286 284 284 286 285 285 285 285 286 289 300
298 300 300 305 304 303 301 301 300 297 296 296 297 297 297 295 294 292 292 290 289 289 288 287 286 289 286 286 291 290 290 286 285 284 282 283 283 284 284 285 286 287 289
298 299 300 305 303 303 304 297 294 295 292 292 293 292 292 290 289 289 288 286 286 285 284 284 284 283 282 283 289 289 286 289 286 283 282 282 281 282 283 284 284 286 286
297 299 300 304 304 302 296 293 291 291 291 290 290 289 289 288 287 287 286 285 284 284 282 282 282 282 280 282 282 285 279 279 281 285 281 281 281 281 281 282 283 284 283
298 299 301 303 302 295 295 294 294 294 292 289 288 287 286 285 285 285 284 284 283 283 282 281 282 281 281 279 281 283 280 280 277 276 279 279 280 280 279 280 280 282 282
298 300 303 301 295 295 294 294 294 293 288 287 287 286 283 283 283 283 283 282 282 282 281 281 281 281 281 280 279 279 279 278 278 277 275 277 278 279 279 279 279 279 280
298 303 303 295 294 294 293 293 291 287 286 285 285 284 282 282 282 282 282 282 282 282 282 281 281 280 280 280 280 280 279 277 277 275 275 275 275 277 278 279 278 279 278

GFSSE_sfc_thetae_069.txt.gz
Theta_e
339 345 349 352 351 351 350 351 350 348 347 344 343 342 342 341 341 340 341 341 342 343 343 345 343 345 345 343 342 341 340 339 338 338 338 339 340 341 342 341 343 343 347
343 346 347 350 352 352 350 351 350 348 347 344 343 341 340 340 340 339 339 339 341 341 344 344 342 345 344 342 340 339 339 337 336 336 335 337 338 338 339 338 341 340 344
344 347 347 348 352 352 351 351 350 348 346 343 342 340 339 339 339 338 337 337 339 340 341 342 343 343 342 340 339 338 336 334 333 333 333 333 333 336 336 336 336 337 339
345 347 348 346 351 351 351 350 349 348 345 343 342 340 339 338 337 335 335 334 335 337 340 340 342 342 339 338 336 334 333 332 331 330 329 330 330 335 335 334 335 335 335
345 347 347 347 351 352 350 349 349 348 346 343 342 340 338 336 334 332 331 330 331 333 337 339 340 340 337 335 333 331 331 330 328 328 329 330 331 333 335 334 333 333 334
345 346 345 347 350 351 350 348 348 348 348 344 342 340 339 338 335 331 328 328 328 330 334 334 336 336 332 329 328 328 328 326 325 326 328 330 330 334 334 333 333 333 334
344 346 346 345 347 348 349 348 347 347 347 344 342 340 339 338 337 335 328 326 326 327 329 330 331 329 325 323 323 324 323 322 321 324 327 329 330 333 333 333 332 332 332
344 344 345 339 342 344 346 347 347 346 346 344 342 340 339 337 336 335 330 326 325 326 326 326 326 325 322 320 320 321 320 317 318 321 325 328 332 334 333 334 332 331 331
343 343 343 344 341 337 340 342 343 344 344 343 342 342 340 337 337 335 333 329 326 324 323 323 322 321 319 318 318 319 318 317 318 320 322 326 330 331 334 334 335 334 334
339 340 341 342 342 343 343 334 337 339 340 340 339 336 334 333 333 332 330 330 327 324 322 321 320 319 317 316 316 316 314 317 320 322 324 325 328 328 328 329 330 330 330
324 332 337 340 341 341 341 336 332 334 336 335 334 330 329 333 332 331 328 329 327 324 321 319 318 317 315 314 314 313 314 316 319 322 325 327 329 329 328 327 326 327 327
319 319 326 333 336 339 339 339 339 338 342 340 338 334 335 332 333 328 324 324 325 323 321 320 317 313 309 308 309 311 312 314 316 318 318 325 326 328 328 328 328 328 327
317 316 318 318 320 326 334 340 339 339 340 338 335 334 333 330 329 325 324 321 319 315 315 314 313 311 309 308 308 309 310 311 311 311 314 321 322 325 326 326 326 327 326
312 314 313 316 316 318 322 333 341 338 337 337 334 333 331 329 327 323 322 320 317 316 314 315 313 311 308 306 306 305 305 306 306 306 310 314 317 320 322 322 322 322 321
310 311 312 312 315 316 317 327 333 337 338 338 333 333 331 328 325 324 320 318 316 314 313 313 312 310 306 303 301 300 299 299 299 300 304 308 310 314 317 319 320 320 319
307 308 310 311 313 315 316 326 330 332 331 333 332 332 329 328 325 322 318 317 314 313 312 312 310 306 303 300 297 296 294 293 293 293 295 300 305 309 313 316 317 317 316
304 306 307 310 314 314 315 325 326 327 327 327 329 328 328 328 323 320 317 316 316 312 309 308 307 303 300 296 294 293 291 291 290 290 291 292 296 304 307 310 310 311 312
303 304 306 311 314 315 317 322 322 320 321 321 322 327 326 324 322 318 316 315 312 309 307 306 304 301 298 293 290 290 290 290 289 289 290 290 291 294 300 302 303 306 308
302 304 305 311 313 314 315 316 317 315 316 317 317 319 321 321 319 317 314 310 307 304 304 302 301 299 293 290 288 288 288 288 288 288 288 288 289 289 289 294 297 298 302
301 303 306 309 311 311 310 309 307 308 307 311 312 312 315 315 314 313 308 304 302 300 299 299 298 296 292 289 286 286 286 287 287 287 287 287 287 287 287 286 287 290 296
300 301 304 308 309 308 308 307 305 305 303 302 304 304 305 308 308 308 303 298 299 300 299 298 297 292 289 289 288 286 286 286 285 286 286 287 286 286 286 285 285 286 286
299 301 303 307 307 307 310 306 303 302 298 298 297 299 301 300 303 303 300 295 296 296 297 298 295 291 290 291 291 291 287 288 285 284 285 285 285 286 285 284 283 283 284
298 300 303 307 306 307 306 298 296 297 295 294 294 294 295 300 299 297 296 293 295 298 297 297 294 292 289 287 290 294 289 289 288 286 283 284 284 284 284 283 282 282 283
297 301 303 307 305 305 299 301 301 301 298 296 295 293 292 294 294 295 291 290 294 297 295 294 292 291 290 287 285 284 285 288 285 280 283 282 283 283 283 283 282 281 282
297 299 303 305 305 303 300 302 303 303 300 295 292 290 290 289 290 288 288 288 290 292 292 291 288 288 290 287 286 283 284 283 283 283 279 280 282 283 283 283 282 281 281
297 299 302 304 304 300 300 300 303 301 292 291 290 288 288 288 286 286 285 286 287 287 287 287 287 287 286 286 285 285 284 283 282 281 280 280 281 281 283 283 282 281 281

GFSSE_sfc_thetae_072.txt.gz
Theta_e
342 345 349 349 350 350 350 348 347 348 345 343 342 342 341 341 342 341 342 343 344 345 344 344 346 344 341 342 341 339 338 338 338 338 339 339 340 341 342 342 343 344 347
344 345 347 349 351 350 350 350 348 347 344 343 341 340 341 340 340 340 341 341 343 345 343 346 344 344 340 339 338 336 336 336 335 336 339 338 338 338 339 338 340 341 345
344 345 347 349 352 350 349 349 348 347 344 342 341 340 340 339 338 338 339 340 341 342 342 345 345 342 339 337 335 334 334 334 333 336 337 332 333 335 337 336 336 340 342
345 345 346 347 351 350 349 349 348 347 343 342 340 339 338 337 336 335 336 337 339 341 344 344 342 339 337 335 333 333 333 332 334 334 331 331 330 335 335 335 336 336 336
345 346 346 347 351 351 350 349 348 346 344 342 340 338 336 334 333 332 332 334 337 338 341 343 339 336 333 332 332 332 331 331 333 331 331 331 331 333 336 335 333 333 334
345 347 346 348 350 350 348 348 348 347 344 342 340 339 338 335 331 330 329 331 334 335 337 338 334 330 328 329 330 330 329 331 331 330 329 331 331 334 335 333 333 333 333
344 347 347 346 348 348 348 348 347 347 345 342 341 340 339 337 331 328 328 329 331 332 333 331 327 325 325 326 327 327 326 330 328 329 331 330 330 335 333 334 331 332 332
344 346 344 339 342 345 347 346 346 345 345 342 341 339 338 337 332 328 327 328 328 329 329 327 324 322 323 324 325 324 325 326 325 326 327 329 333 336 337 336 336 334 334
345 346 345 344 342 337 341 342 342 343 343 343 342 340 338 337 335 331 330 327 326 326 325 323 321 320 322 324 324 323 325 326 324 324 324 325 330 331 333 332 333 333 332
344 345 344 345 345 345 346 335 337 340 340 340 339 335 332 332 331 330 328 327 325 324 322 321 319 319 321 322 321 322 324 324 324 326 326 326 329 329 328 328 328 327 329
342 343 344 344 344 345 345 339 334 334 335 335 333 329 328 333 332 330 326 326 323 322 321 320 319 319 319 318 319 321 322 324 323 325 326 328 329 330 331 329 329 328 327
338 342 343 344 343 344 344 343 344 343 344 341 339 334 335 335 333 328 323 323 323 321 320 318 316 314 317 318 318 320 320 320 321 321 322 326 328 330 331 328 327 327 325
337 338 337 342 344 344 344 342 344 342 345 343 339 337 334 331 329 326 322 322 322 318 318 317 316 315 316 316 317 317 316 316 317 316 316 323 325 326 326 325 324 323 322
334 334 335 331 329 332 336 343 345 342 341 339 337 337 332 330 328 325 322 319 319 319 318 319 316 314 313 313 314 313 312 312 313 313 312 316 320 322 324 323 321 321 319
329 330 329 332 330 329 330 333 342 342 341 341 337 337 332 332 328 325 322 319 317 317 317 316 314 312 310 309 309 307 306 307 308 307 309 311 317 318 320 320 319 318 316
328 328 328 325 328 328 330 336 338 343 341 342 339 338 334 331 327 323 321 318 317 318 317 316 313 309 306 304 301 299 298 298 300 303 305 309 312 313 314 315 315 315 315
326 326 324 324 324 325 326 328 337 339 336 340 341 340 337 331 326 323 320 318 317 316 317 311 306 301 298 296 296 296 296 295 295 296 299 304 305 305 308 310 311 312 312
324 321 322 318 320 323 324 326 330 333 333 336 335 335 333 329 327 323 319 318 319 314 314 306 302 298 295 295 294 294 294 294 294 294 295 297 298 299 301 304 306 307 308
319 318 318 317 318 320 321 323 330 329 328 326 330 332 331 328 325 324 321 320 314 311 310 306 301 297 295 294 293 293 293 293 292 292 292 292 293 294 296 298 299 301 304
315 314 314 314 316 318 320 321 324 323 320 321 321 322 327 325 324 322 319 315 309 306 303 302 299 298 297 293 290 290 291 292 292 292 291 291 291 290 291 291 293 295 298
311 311 311 312 315 317 317 316 316 315 315 310 314 315 318 319 318 317 312 309 307 304 302 300 296 295 294 293 290 289 289 290 290 290 291 290 289 289 289 289 290 290 292
307 309 310 311 314 316 315 316 316 316 312 309 306 309 310 313 313 312 309 305 308 303 300 298 295 294 293 294 294 291 287 287 288 289 289 289 289 288 287 287 287 288 289
306 307 308 310 313 314 315 315 308 307 303 301 301 303 304 304 306 309 308 304 303 305 301 298 298 298 293 295 297 300 292 291 286 287 287 288 288 288 287 286 286 286 287
306 308 308 310 312 313 314 310 310 309 306 306 306 302 297 301 302 300 300 300 300 304 300 300 301 301 297 294 295 294 294 296 291 283 285 286 287 287 287 286 285 285 286
306 306 308 309 311 312 313 311 311 311 314 314 309 301 298 294 297 300 296 295 298 301 301 303 302 301 299 299 297 292 290 291 292 288 283 283 285 286 287 286 286 286 285
304 305 307 307 309 311 310 311 311 312 311 306 304 300 295 292 290 290 292 295 297 300 299 301 301 299 300 299 298 293 291 289 288 288 285 284 284 284 286 286 286 286 286

GFSSE_sfc_thetae_075.txt.gz
Theta_e
339 343 347 348 348 348 348 347 345 344 343 342 342 341 342 342 342 343 345 346 346 344 347 345 341 342 340 339 338 338 338 338 338 338 338 339 340 341 342 343 344 342 345
342 344 346 350 348 348 349 348 346 345 342 341 341 341 340 340 341 342 342 345 345 346 346 344 343 339 338 336 335 336 335 335 338 340 338 338 339 338 339 341 343 341 343
343 345 345 348 349 348 349 348 347 344 342 341 340 340 339 339 339 340 341 343 342 345 346 343 341 338 336 334 334 334 334 334 337 339 336 331 332 336 337 337 338 338 339
344 344 345 346 350 349 349 348 347 345 341 340 340 339 338 337 337 337 339 340 342 344 343 342 339 336 334 333 334 333 333 335 337 336 330 329 330 335 335 335 334 335 334
343 344 346 347 350 349 348 348 347 345 341 340 338 336 335 334 333 334 337 338 341 343 341 338 335 333 332 333 332 332 333 336 335 331 330 331 332 332 335 334 332 333 335
343 344 345 349 350 349 348 348 347 344 341 340 339 337 333 332 331 332 335 336 337 340 337 333 331 330 331 331 331 331 332 336 332 329 329 331 327 334 333 334 332 334 335
341 343 347 347 348 348 348 347 347 345 342 341 340 339 334 330 330 331 333 334 335 334 331 329 328 328 329 329 329 330 332 333 331 331 329 332 334 337 336 336 335 335 335
342 345 346 340 343 345 347 346 346 345 343 341 340 338 335 330 329 330 331 331 332 330 327 325 326 327 328 327 327 328 330 328 325 326 327 330 334 335 336 335 334 333 332
342 343 343 342 342 338 341 341 343 343 343 342 340 339 336 333 331 330 330 329 329 327 324 323 324 326 327 327 327 328 327 326 323 324 323 325 328 331 332 332 331 330 330
340 341 342 342 343 344 345 335 337 339 340 340 337 334 332 331 330 329 327 327 325 324 322 322 323 325 326 325 325 325 325 327 326 326 327 327 329 328 328 329 329 328 327
338 340 341 340 341 342 343 339 333 334 335 334 331 328 326 328 327 327 324 325 324 322 321 321 323 323 322 322 323 324 324 324 325 325 326 329 331 333 332 330 328 326 325
337 338 340 341 340 341 341 343 343 343 341 338 334 332 336 333 331 325 320 322 323 322 320 320 321 322 320 319 320 322 322 320 321 323 324 328 329 330 329 327 326 324 322
335 338 339 341 342 343 342 343 344 343 343 341 337 335 336 331 328 325 321 320 319 317 316 316 317 318 319 319 318 318 319 319 317 316 316 325 326 326 326 324 323 320 319
333 336 339 341 342 344 344 343 343 343 343 340 340 336 333 329 325 323 321 322 321 322 320 319 318 317 316 316 316 314 315 315 315 314 313 318 323 324 324 321 319 318 317
330 334 338 340 341 341 342 342 343 341 343 342 339 334 332 328 326 325 321 320 320 321 320 317 315 314 313 312 311 310 310 310 311 312 312 313 319 319 319 318 318 317 316
331 333 336 337 338 337 339 339 340 341 341 343 338 336 332 330 327 324 320 318 318 318 319 317 314 311 309 306 303 303 304 305 306 309 310 308 313 314 315 316 316 315 314
331 332 333 333 336 336 335 337 339 341 340 340 340 339 334 333 326 323 320 319 317 319 319 314 311 306 302 300 299 298 298 299 300 304 305 305 305 309 310 312 312 312 312
329 329 332 330 331 332 332 334 336 338 339 340 340 339 335 332 329 323 320 317 319 318 314 310 304 298 296 297 297 296 296 296 296 297 300 300 301 302 304 307 308 308 309
327 329 330 329 327 329 330 331 332 335 337 337 337 336 338 332 329 324 321 319 319 314 311 307 300 297 295 295 295 295 295 294 294 293 293 294 296 297 298 301 301 303 304
325 327 328 328 326 327 328 328 329 332 333 333 332 333 332 330 327 325 320 317 313 312 309 303 298 297 295 294 293 293 293 293 294 293 291 291 292 292 293 294 296 296 300
321 322 324 324 324 324 324 323 324 326 323 323 325 324 328 328 326 325 322 314 310 308 306 300 297 296 293 294 292 291 291 291 291 292 292 291 290 290 290 291 292 292 293
314 318 319 319 319 320 320 320 320 321 321 320 316 316 316 320 323 319 316 312 307 306 302 298 296 293 292 294 293 291 286 287 289 290 291 290 289 289 288 288 289 290 292
311 314 315 316 316 317 318 318 318 317 317 313 311 311 308 310 315 314 313 310 306 306 302 297 296 294 290 292 295 298 289 289 286 288 288 289 289 288 287 287 287 288 289
312 313 313 315 315 316 318 316 315 311 309 310 313 311 307 305 307 309 310 309 306 306 305 298 297 298 294 291 296 299 298 293 288 282 287 287 288 287 287 287 286 286 288
312 312 313 313 313 315 316 316 314 310 313 314 315 309 304 300 304 302 305 306 305 305 305 300 298 298 296 295 296 297 295 296 295 288 282 283 286 287 287 286 286 286 286
311 311 312 311 311 313 315 315 313 312 313 314 313 306 300 298 296 300 299 300 301 302 301 300 299 299 298 299 299 296 293 291 290 290 286 283 283 285 286 287 286 286 286